Time,TemperatureF,DewpointF,PressureIn,WindDirection,WindDirectionDegrees,WindSpeedMPH,WindSpeedGustMPH,Humidity,HourlyPrecipIn,Conditions,Clouds,dailyrainin,SoftwareType,DateUTC
2013-08-18 00:13:00,62.3,61.0,30.15,SSE,158,0.0,0.0,94,0.08,,,0.08,weatherlink.com 1.10,2013-08-18 04:13:00,
2013-08-18 00:28:00,62.4,61.0,30.15,SSE,158,0.0,0.0,95,0.20,,,0.20,weatherlink.com 1.10,2013-08-18 04:28:00,
2013-08-18 00:43:00,62.2,61.0,30.15,SSE,158,0.0,0.0,95,0.23,,,0.23,weatherlink.com 1.10,2013-08-18 04:43:00,
2013-08-18 00:58:00,61.7,60.0,30.14,SSE,158,0.0,0.0,94,0.23,,,0.23,weatherlink.com 1.10,2013-08-18 04:58:00,
2013-08-18 01:13:00,61.3,60.0,30.14,SSE,158,0.0,1.0,94,0.14,,,0.23,weatherlink.com 1.10,2013-08-18 05:13:00,
2013-08-18 01:28:00,61.0,60.0,30.14,SSE,158,0.0,1.0,95,0.02,,,0.23,weatherlink.com 1.10,2013-08-18 05:28:00,
2013-08-18 01:43:00,60.7,59.0,30.14,SSE,158,0.0,0.0,95,0.00,,,0.23,weatherlink.com 1.10,2013-08-18 05:43:00,
2013-08-18 01:58:00,60.3,59.0,30.14,SSE,158,0.0,0.0,95,0.00,,,0.23,weatherlink.com 1.10,2013-08-18 05:58:00,
2013-08-18 02:13:00,60.2,59.0,30.14,SSE,158,0.0,0.0,95,0.00,,,0.23,weatherlink.com 1.10,2013-08-18 06:13:00,
2013-08-18 02:28:00,59.9,59.0,30.14,SSE,158,0.0,0.0,95,0.00,,,0.23,weatherlink.com 1.10,2013-08-18 06:28:00,
2013-08-18 02:43:00,59.7,58.0,30.14,SSE,158,0.0,1.0,95,0.00,,,0.23,weatherlink.com 1.10,2013-08-18 06:43:00,
2013-08-18 02:58:00,59.4,58.0,30.14,SSE,158,0.0,0.0,96,0.00,,,0.23,weatherlink.com 1.10,2013-08-18 06:58:00,
2013-08-18 03:14:00,59.2,58.0,30.14,SSE,158,0.0,0.0,96,0.00,,,0.23,weatherlink.com 1.10,2013-08-18 07:14:00,
2013-08-18 03:29:00,59.1,58.0,30.14,SSE,158,0.0,0.0,96,0.00,,,0.23,weatherlink.com 1.10,2013-08-18 07:29:00,
2013-08-18 03:44:00,58.8,57.0,30.15,SSE,158,0.0,0.0,95,0.00,,,0.23,weatherlink.com 1.10,2013-08-18 07:44:00,
2013-08-18 03:59:00,58.6,58.0,30.15,SSE,158,0.0,0.0,96,0.00,,,0.23,weatherlink.com 1.10,2013-08-18 07:59:00,
2013-08-18 04:14:00,58.4,57.0,30.15,SSE,158,0.0,-999.0,96,-99.99,,,0.23,weatherlink.com 1.10,2013-08-18 08:14:00,
2013-08-18 04:29:00,58.1,57.0,30.15,SSE,158,0.0,0.0,95,0.00,,,0.23,weatherlink.com 1.10,2013-08-18 08:29:00,
2013-08-18 04:44:00,57.8,57.0,30.15,SSE,158,0.0,0.0,96,0.00,,,0.23,weatherlink.com 1.10,2013-08-18 08:44:00,
2013-08-18 04:59:00,57.6,57.0,30.14,SSE,158,0.0,0.0,96,0.00,,,0.23,weatherlink.com 1.10,2013-08-18 08:59:00,
2013-08-18 05:14:00,57.5,56.0,30.14,SSE,158,0.0,0.0,96,0.00,,,0.23,weatherlink.com 1.10,2013-08-18 09:14:00,
2013-08-18 05:29:00,57.3,56.0,30.14,SSE,158,0.0,0.0,96,0.00,,,0.23,weatherlink.com 1.10,2013-08-18 09:29:00,
2013-08-18 05:44:00,57.2,56.0,30.15,SSE,158,0.0,0.0,96,0.00,,,0.23,weatherlink.com 1.10,2013-08-18 09:44:00,
2013-08-18 05:59:00,57.1,56.0,30.15,SSE,158,0.0,0.0,96,0.00,,,0.23,weatherlink.com 1.10,2013-08-18 09:59:00,
2013-08-18 06:14:00,57.1,56.0,30.15,SSE,158,0.0,0.0,97,0.00,,,0.23,weatherlink.com 1.10,2013-08-18 10:14:00,
2013-08-18 06:29:00,56.9,56.0,30.15,SSE,158,0.0,0.0,96,0.00,,,0.23,weatherlink.com 1.10,2013-08-18 10:29:00,
2013-08-18 06:44:00,57.1,56.0,30.15,SSE,158,0.0,0.0,97,0.00,,,0.23,weatherlink.com 1.10,2013-08-18 10:44:00,
2013-08-18 06:59:00,57.8,57.0,30.15,SSE,158,0.0,0.0,98,0.00,,,0.23,weatherlink.com 1.10,2013-08-18 10:59:00,
2013-08-18 07:14:00,58.4,58.0,30.16,SSE,158,0.0,0.0,98,0.00,,,0.23,weatherlink.com 1.10,2013-08-18 11:14:00,
2013-08-18 07:29:00,59.0,59.0,30.16,SSE,158,0.0,0.0,98,0.00,,,0.23,weatherlink.com 1.10,2013-08-18 11:29:00,
2013-08-18 07:45:00,60.2,60.0,30.15,ENE,57,3.0,3.0,98,0.00,,,0.23,weatherlink.com 1.10,2013-08-18 11:45:00,
2013-08-18 07:59:00,61.4,61.0,30.15,NNE,12,2.0,4.0,97,0.00,,,0.23,weatherlink.com 1.10,2013-08-18 11:59:00,
2013-08-18 08:14:00,62.8,61.0,30.16,NE,47,2.0,5.0,94,0.00,,,0.23,weatherlink.com 1.10,2013-08-18 12:14:00,
2013-08-18 08:29:00,64.5,62.0,30.15,NE,43,2.0,4.0,92,0.00,,,0.23,weatherlink.com 1.10,2013-08-18 12:29:00,
2013-08-18 08:44:00,65.5,62.0,30.15,NNE,30,2.0,4.0,88,0.00,,,0.23,weatherlink.com 1.10,2013-08-18 12:44:00,
2013-08-18 08:59:00,66.4,63.0,30.15,NE,49,2.0,4.0,87,0.00,,,0.23,weatherlink.com 1.10,2013-08-18 12:59:00,
2013-08-18 09:14:00,67.0,63.0,30.15,NE,53,2.0,3.0,86,0.00,,,0.23,weatherlink.com 1.10,2013-08-18 13:14:00,
2013-08-18 09:29:00,67.8,63.0,30.14,North,360,1.0,4.0,85,0.00,,,0.23,weatherlink.com 1.10,2013-08-18 13:29:00,
2013-08-18 09:44:00,71.2,64.0,30.14,NE,55,1.0,4.0,79,0.00,,,0.23,weatherlink.com 1.10,2013-08-18 13:44:00,
2013-08-18 09:59:00,74.9,67.0,30.14,SE,138,2.0,3.0,76,0.00,,,0.23,weatherlink.com 1.10,2013-08-18 13:59:00,
2013-08-18 10:14:00,77.2,67.0,30.14,NE,42,1.0,3.0,70,0.00,,,0.23,weatherlink.com 1.10,2013-08-18 14:14:00,
2013-08-18 10:29:00,79.6,65.0,30.14,SSE,155,1.0,4.0,62,0.00,,,0.23,weatherlink.com 1.10,2013-08-18 14:29:00,
2013-08-18 10:44:00,80.5,67.0,30.14,NNE,23,1.0,3.0,63,0.00,,,0.23,weatherlink.com 1.10,2013-08-18 14:44:00,
2013-08-18 11:00:00,83.2,67.0,30.13,East,90,0.0,4.0,59,0.00,,,0.23,weatherlink.com 1.10,2013-08-18 15:00:00,
2013-08-18 11:15:00,84.4,68.0,30.13,ESE,107,1.0,4.0,58,0.01,,,0.24,weatherlink.com 1.10,2013-08-18 15:15:00,
2013-08-18 11:30:00,84.7,68.0,30.13,ESE,103,1.0,3.0,57,0.01,,,0.24,weatherlink.com 1.10,2013-08-18 15:30:00,
2013-08-18 11:45:00,83.5,66.0,30.12,SSW,205,0.0,3.0,56,0.01,,,0.24,weatherlink.com 1.10,2013-08-18 15:45:00,
2013-08-18 12:00:00,84.4,68.0,30.11,SE,145,0.0,5.0,58,0.01,,,0.24,weatherlink.com 1.10,2013-08-18 16:00:00,
2013-08-18 12:15:00,84.5,64.0,30.11,WSW,246,0.0,3.0,51,0.00,,,0.24,weatherlink.com 1.10,2013-08-18 16:15:00,
2013-08-18 12:30:00,85.4,63.0,30.10,SW,217,2.0,5.0,48,0.00,,,0.24,weatherlink.com 1.10,2013-08-18 16:30:00,
2013-08-18 12:45:00,86.6,63.0,30.10,SE,128,4.0,6.0,46,0.00,,,0.24,weatherlink.com 1.10,2013-08-18 16:45:00,
2013-08-18 13:00:00,86.0,60.0,30.10,West,265,2.0,4.0,42,0.00,,,0.24,weatherlink.com 1.10,2013-08-18 17:00:00,
2013-08-18 13:15:00,84.3,64.0,30.09,SE,138,2.0,6.0,50,0.00,,,0.24,weatherlink.com 1.10,2013-08-18 17:15:00,
2013-08-18 13:30:00,83.6,60.0,30.09,SW,219,3.0,5.0,45,0.00,,,0.24,weatherlink.com 1.10,2013-08-18 17:30:00,
2013-08-18 13:45:00,82.7,63.0,30.08,SE,137,2.0,8.0,52,0.00,,,0.24,weatherlink.com 1.10,2013-08-18 17:45:00,
2013-08-18 14:00:00,81.2,61.0,30.08,SW,214,0.0,9.0,51,0.00,,,0.24,weatherlink.com 1.10,2013-08-18 18:00:00,
2013-08-18 14:15:00,79.9,63.0,30.08,South,178,2.0,6.0,56,0.00,,,0.24,weatherlink.com 1.10,2013-08-18 18:15:00,
2013-08-18 14:31:00,79.1,64.0,30.07,ENE,71,2.0,6.0,60,0.00,,,0.24,weatherlink.com 1.10,2013-08-18 18:31:00,
2013-08-18 14:45:00,79.2,63.0,30.06,SE,140,1.0,6.0,57,0.00,,,0.24,weatherlink.com 1.10,2013-08-18 18:45:00,
2013-08-18 15:00:00,79.6,63.0,30.06,WNW,286,2.0,4.0,57,0.00,,,0.24,weatherlink.com 1.10,2013-08-18 19:00:00,
2013-08-18 15:15:00,79.4,64.0,30.05,SSW,206,1.0,7.0,59,0.00,,,0.24,weatherlink.com 1.10,2013-08-18 19:15:00,
2013-08-18 15:30:00,79.1,63.0,30.05,East,80,5.0,5.0,58,0.00,,,0.24,weatherlink.com 1.10,2013-08-18 19:30:00,
2013-08-18 15:45:00,78.7,64.0,30.04,SSW,202,3.0,7.0,61,0.00,,,0.24,weatherlink.com 1.10,2013-08-18 19:45:00,
2013-08-18 16:00:00,78.6,62.0,30.04,SSW,202,3.0,5.0,58,0.00,,,0.24,weatherlink.com 1.10,2013-08-18 20:00:00,
2013-08-18 16:15:00,78.2,63.0,30.03,South,177,2.0,6.0,59,0.00,,,0.24,weatherlink.com 1.10,2013-08-18 20:15:00,
2013-08-18 16:30:00,77.8,63.0,30.02,SSE,157,1.0,3.0,60,0.00,,,0.24,weatherlink.com 1.10,2013-08-18 20:30:00,
2013-08-18 16:45:00,77.6,64.0,30.02,SW,218,1.0,3.0,64,0.00,,,0.24,weatherlink.com 1.10,2013-08-18 20:45:00,
2013-08-18 17:00:00,77.2,63.0,30.02,SSE,154,0.0,6.0,61,0.00,,,0.24,weatherlink.com 1.10,2013-08-18 21:00:00,
2013-08-18 17:15:00,77.0,62.0,30.02,South,187,1.0,4.0,60,0.00,,,0.24,weatherlink.com 1.10,2013-08-18 21:15:00,
2013-08-18 17:30:00,76.9,65.0,30.01,SSE,166,0.0,4.0,67,0.00,,,0.24,weatherlink.com 1.10,2013-08-18 21:30:00,
2013-08-18 17:45:00,76.4,66.0,30.01,SSE,166,0.0,1.0,70,0.00,,,0.24,weatherlink.com 1.10,2013-08-18 21:45:00,
2013-08-18 18:00:00,75.8,65.0,30.01,SSW,205,1.0,3.0,69,0.00,,,0.24,weatherlink.com 1.10,2013-08-18 22:00:00,
2013-08-18 18:15:00,75.3,64.0,30.00,SSE,163,0.0,2.0,69,0.00,,,0.24,weatherlink.com 1.10,2013-08-18 22:15:00,
2013-08-18 18:30:00,74.8,65.0,30.00,SSE,163,0.0,1.0,72,0.00,,,0.24,weatherlink.com 1.10,2013-08-18 22:30:00,
2013-08-18 18:45:00,74.2,65.0,30.00,SSE,163,0.0,0.0,73,0.00,,,0.24,weatherlink.com 1.10,2013-08-18 22:45:00,
2013-08-18 19:00:00,73.7,65.0,30.00,SSE,163,0.0,0.0,75,0.00,,,0.24,weatherlink.com 1.10,2013-08-18 23:00:00,
2013-08-18 19:16:00,72.9,65.0,30.00,SSE,163,0.0,0.0,75,0.00,,,0.24,weatherlink.com 1.10,2013-08-18 23:16:00,
2013-08-18 19:31:00,72.3,65.0,30.00,SSE,163,0.0,0.0,77,0.00,,,0.24,weatherlink.com 1.10,2013-08-18 23:31:00,
2013-08-18 19:46:00,71.7,65.0,30.00,SSE,163,0.0,0.0,78,0.00,,,0.24,weatherlink.com 1.10,2013-08-18 23:46:00,
2013-08-18 20:01:00,71.1,65.0,30.00,SSE,163,0.0,0.0,80,0.00,,,0.24,weatherlink.com 1.10,2013-08-19 00:01:00,
2013-08-18 20:16:00,70.4,64.0,30.00,SSE,163,0.0,0.0,81,0.00,,,0.24,weatherlink.com 1.10,2013-08-19 00:16:00,
2013-08-18 20:31:00,69.9,64.0,30.00,SSE,163,0.0,1.0,82,0.00,,,0.24,weatherlink.com 1.10,2013-08-19 00:31:00,
2013-08-18 20:46:00,69.5,65.0,30.00,SSE,163,0.0,0.0,84,0.00,,,0.24,weatherlink.com 1.10,2013-08-19 00:46:00,
2013-08-18 21:01:00,69.0,64.0,29.99,SSE,163,0.0,1.0,84,0.00,,,0.24,weatherlink.com 1.10,2013-08-19 01:01:00,
2013-08-18 21:16:00,68.7,64.0,29.99,SSE,163,0.0,0.0,86,0.00,,,0.24,weatherlink.com 1.10,2013-08-19 01:16:00,
2013-08-18 21:31:00,68.3,64.0,29.99,SSE,163,0.0,0.0,86,0.00,,,0.24,weatherlink.com 1.10,2013-08-19 01:31:00,
2013-08-18 21:46:00,67.8,64.0,29.99,SSE,163,0.0,1.0,87,0.00,,,0.24,weatherlink.com 1.10,2013-08-19 01:46:00,
2013-08-18 22:01:00,67.4,64.0,29.98,SSE,163,0.0,0.0,88,0.00,,,0.24,weatherlink.com 1.10,2013-08-19 02:01:00,
2013-08-18 22:16:00,67.1,64.0,29.98,SSE,163,0.0,1.0,89,0.00,,,0.24,weatherlink.com 1.10,2013-08-19 02:16:00,
2013-08-18 22:31:00,66.9,64.0,29.98,SSE,163,0.0,1.0,89,0.00,,,0.24,weatherlink.com 1.10,2013-08-19 02:31:00,
2013-08-18 22:46:00,66.8,63.0,29.97,SSE,159,0.0,2.0,88,0.00,,,0.24,weatherlink.com 1.10,2013-08-19 02:46:00,
2013-08-18 23:01:00,66.7,63.0,29.97,ESE,109,0.0,4.0,88,0.00,,,0.24,weatherlink.com 1.10,2013-08-19 03:01:00,
2013-08-18 23:16:00,66.5,63.0,29.96,ESE,113,0.0,0.0,89,0.00,,,0.24,weatherlink.com 1.10,2013-08-19 03:16:00,
2013-08-18 23:31:00,66.1,63.0,29.96,ESE,113,0.0,1.0,89,0.00,,,0.24,weatherlink.com 1.10,2013-08-19 03:31:00,
2013-08-18 23:46:00,65.6,62.0,29.96,ESE,113,0.0,0.0,89,0.00,,,0.24,weatherlink.com 1.10,2013-08-19 03:46:00,